Stations météo

réclame
Mon MeteoGroup
Brindisi, Italie (16320): Température de l'air & dewpoint: 09.12.2017 20:00:00 - 15.12.2017 20:00:00 (CET)Brindisi, Italie (16320): Vitesse du vent: 09.12.2017 20:00:00 - 15.12.2017 20:00:00 (CET)Brindisi, Italie (16320): Direction du vent: 09.12.2017 20:00:00 - 15.12.2017 20:00:00 (CET)Brindisi, Italie (16320): reduced air pressure: 09.12.2017 20:00:00 - 15.12.2017 20:00:00 (CET)Brindisi, Italie (16320): visibility: 09.12.2017 20:00:00 - 15.12.2017 20:00:00 (CET)Brindisi, Italie (16320): Ensoleillement: 09.12.2017 20:00:00 - 15.12.2017 20:00:00 (CET)
Date & Time tt [°C] td [°C] ff [km/h] ff [knt] dd ppp [hPa] vv [km] sd [min]
15.12.2017 20:00:00 14,0 12,0 55 30 S - 10 -
15.12.2017 19:00:00 14,4 12,3 37 20 S 1008,1 10 -
15.12.2017 18:00:00 14,0 12,0 35 19 S - 10 -
15.12.2017 17:00:00 14,0 12,0 26 14 S - 10 -
15.12.2017 16:00:00 14,2 11,9 34 18 SSE 1009,4 10 0
15.12.2017 15:00:00 14,0 12,0 34 18 S - 10 -
15.12.2017 14:00:00 15,0 12,0 22 12 SSE - 10 -
15.12.2017 13:00:00 14,6 12,5 26 14 S 1011,6 10 -
15.12.2017 12:00:00 14,0 12,0 26 14 SSE - 10 -
15.12.2017 11:00:00 14,0 12,0 28 15 SSE - 10 -
15.12.2017 10:00:00 13,0 11,1 21 11 SSE 1013,3 10 0
15.12.2017 09:00:00 13,0 11,0 16 9 SSE - 10 -
15.12.2017 08:00:00 13,0 11,0 21 11 SSE - 10 -
15.12.2017 07:00:00 12,0 10,4 24 13 S 1012,9 10 -
15.12.2017 06:00:00 12,0 10,0 29 16 S - 10 -
15.12.2017 05:00:00 12,0 10,0 34 18 SSE - 10 -
15.12.2017 04:00:00 12,0 10,4 29 16 SSE 1014,3 10 -
15.12.2017 03:00:00 12,0 10,0 26 14 S - 10 -
15.12.2017 02:00:00 13,0 11,0 21 11 S - 10 -
15.12.2017 01:00:00 13,0 11,4 21 11 SSE 1016,2 10 -
15.12.2017 00:00:00 13,0 11,0 21 11 SSE - 10 -
14.12.2017 23:00:00 13,0 11,0 34 18 S - 10 -
14.12.2017 22:00:00 13,0 11,4 34 18 S 1016,3 10 -
14.12.2017 21:00:00 13,0 11,0 26 14 S - 10 -
14.12.2017 20:00:00 13,0 11,0 26 14 SW - 10 -
14.12.2017 19:00:00 13,0 10,5 26 14 SW 1016,5 10 -
14.12.2017 18:00:00 13,0 11,0 9 5 S - 10 -
14.12.2017 17:00:00 13,0 11,0 13 7 S - 10 -
14.12.2017 16:00:00 14,0 9,7 13 7 S 1016,6 10 0
14.12.2017 15:00:00 14,0 10,0 13 7 SSE - 10 -
14.12.2017 14:00:00 15,0 8,0 13 7 S - 10 -
14.12.2017 13:00:00 15,0 8,5 18 10 S 1017,4 10 24
14.12.2017 12:00:00 15,0 8,0 31 17 SW - 10 -
14.12.2017 11:00:00 14,0 8,0 21 11 SW - 10 -
14.12.2017 10:00:00 13,0 7,7 24 13 SW 1018,3 10 60
14.12.2017 09:00:00 11,0 8,0 18 10 SSW - 10 -
14.12.2017 08:00:00 10,0 7,0 21 11 SW - 10 -
14.12.2017 07:00:00 8,4 6,0 22 12 SW 1018,8 10 0
14.12.2017 06:00:00 8,0 5,0 4 2 S - 8 -
14.12.2017 05:00:00 10,0 7,0 4 2 S - 8 -
14.12.2017 04:00:00 10,2 7,8 5 3 S 1018,8 8 -
14.12.2017 03:00:00 10,0 8,0 9 5 S - 8 -
14.12.2017 02:00:00 - - - - - - - -
14.12.2017 01:00:00 11,0 8,7 9 5 W 1018,8 8 -
14.12.2017 00:00:00 11,0 9,0 9 5 SW - 8 -
13.12.2017 23:00:00 11,0 9,0 4 2 WSW - 8 -
13.12.2017 22:00:00 12,0 9,9 2 1 WSW 1019,2 8 -
13.12.2017 21:00:00 12,0 10,0 5 3 WSW - 8 -
13.12.2017 20:00:00 13,0 11,0 4 2 NNW - 8 -
13.12.2017 19:00:00 13,6 11,5 18 10 NW 1018,6 8 -
13.12.2017 18:00:00 14,0 12,0 8 4 NW - 8 -
13.12.2017 17:00:00 15,0 12,0 8 4 NW - 10 -
13.12.2017 16:00:00 16,0 13,8 13 7 W 1018,9 8 0
13.12.2017 15:00:00 16,0 14,0 18 10 S - 8 -
13.12.2017 14:00:00 16,0 14,0 2 1 S - 8 -
13.12.2017 13:00:00 15,4 13,3 18 10 SSE 1020,1 8 0
13.12.2017 12:00:00 15,0 13,0 21 11 SSE - 7 -
13.12.2017 11:00:00 15,0 13,0 21 11 S - 7 -
13.12.2017 10:00:00 14,2 12,1 24 13 S 1020,2 8 0
13.12.2017 09:00:00 14,0 12,0 26 14 S - 8 -
13.12.2017 08:00:00 14,0 12,0 18 10 SSE - 10 -
13.12.2017 07:00:00 14,0 12,2 18 10 SE 1020,2 10 0
13.12.2017 06:00:00 14,0 12,0 18 10 SE - 7 -
13.12.2017 05:00:00 14,0 12,0 24 13 SSE - 7 -
13.12.2017 04:00:00 14,6 13,0 24 13 SE 1020,2 10 -
13.12.2017 03:00:00 15,0 13,0 24 13 SE - 10 -
13.12.2017 02:00:00 15,0 13,0 29 16 S - 10 -
13.12.2017 01:00:00 15,0 13,5 28 15 S 1020,6 10 -
13.12.2017 00:00:00 15,0 14,0 24 13 SSE - 10 -
12.12.2017 23:00:00 15,0 14,0 24 13 S - 10 -
12.12.2017 22:00:00 15,0 13,7 34 18 S 1020,6 10 -
12.12.2017 21:00:00 15,0 14,0 28 15 S - 10 -
12.12.2017 20:00:00 15,0 14,0 28 15 SSE - 10 -
12.12.2017 19:00:00 16,0 14,7 34 18 S 1019,2 10 -
12.12.2017 18:00:00 16,0 15,0 37 20 S - 10 -
12.12.2017 17:00:00 16,0 14,0 35 19 S - 10 -
12.12.2017 16:00:00 17,0 14,7 41 22 S 1019,1 10 30
12.12.2017 15:00:00 18,0 15,0 44 24 S - 10 -
12.12.2017 14:00:00 17,0 14,0 41 22 S - 10 -
12.12.2017 13:00:00 17,4 14,1 48 26 S 1018,7 10 60
12.12.2017 12:00:00 17,0 14,0 46 25 S - 10 -
12.12.2017 11:00:00 17,0 14,0 46 25 S - 10 -
12.12.2017 10:00:00 16,4 14,8 42 23 S 1019,2 10 30
12.12.2017 09:00:00 16,0 15,0 35 19 S - 10 -
12.12.2017 08:00:00 15,0 13,0 26 14 SSE - 10 -
12.12.2017 07:00:00 15,0 13,4 29 16 SSE 1018,1 10 0
12.12.2017 06:00:00 15,0 13,0 28 15 SSE - 10 -
12.12.2017 05:00:00 15,0 13,0 41 22 SSE - 10 -
12.12.2017 04:00:00 15,0 13,4 37 20 SSE 1017,2 10 -
12.12.2017 03:00:00 - - - - - - - -
12.12.2017 02:00:00 15,0 14,0 46 25 S - 10 -
12.12.2017 01:00:00 15,0 13,4 54 29 S 1016,8 10 -
12.12.2017 00:00:00 15,0 14,0 57 31 S - 10 -
11.12.2017 23:00:00 15,0 13,0 46 25 S - 10 -
11.12.2017 22:00:00 14,0 12,5 42 23 SSE 1017,1 10 -
11.12.2017 21:00:00 14,0 13,0 35 19 SSE - 10 -
11.12.2017 20:00:00 14,0 13,0 39 21 SSE - 10 -
11.12.2017 19:00:00 14,2 12,8 39 21 SSE 1017,1 10 -
11.12.2017 18:00:00 14,0 13,0 35 19 SSE - 10 -
11.12.2017 17:00:00 14,0 13,0 39 21 SSE - 10 -
11.12.2017 16:00:00 15,6 13,6 42 23 SSE 1017,1 10 0
11.12.2017 15:00:00 16,0 13,0 44 24 SSE - 10 -
11.12.2017 14:00:00 16,0 12,0 52 28 S - 10 -
11.12.2017 13:00:00 15,8 11,2 46 25 S 1017,3 10 60
11.12.2017 12:00:00 15,0 10,0 44 24 S - 10 -
11.12.2017 11:00:00 15,0 10,0 54 29 S - 10 -
11.12.2017 10:00:00 11,8 10,2 41 22 S 1018,9 10 0
11.12.2017 09:00:00 11,0 10,0 16 9 S - 10 -
11.12.2017 08:00:00 11,0 10,0 22 12 S - 10 -
11.12.2017 07:00:00 9,0 7,9 16 9 SSE 1017,4 10 -
11.12.2017 06:00:00 9,0 7,0 15 8 SE - 10 -
11.12.2017 05:00:00 8,0 6,0 24 13 SSE - 10 -
11.12.2017 04:00:00 8,0 6,5 24 13 SSE 1018,7 10 -
11.12.2017 03:00:00 8,0 6,0 15 8 SSE - 10 -
11.12.2017 02:00:00 8,0 6,0 15 8 SSE - 10 -
11.12.2017 01:00:00 8,0 6,5 15 8 SSE 1018,7 10 -
11.12.2017 00:00:00 8,0 6,0 15 8 SSE - 10 -
10.12.2017 23:00:00 8,0 6,0 22 12 SSE - 10 -
10.12.2017 22:00:00 7,0 4,7 22 12 SSE 1019,2 10 -
10.12.2017 21:00:00 7,0 4,0 28 15 SSE - 10 -
10.12.2017 20:00:00 7,0 4,0 28 15 SSE - 10 -
10.12.2017 19:00:00 8,0 4,8 24 13 SSE 1019,3 10 -
10.12.2017 18:00:00 8,0 3,0 21 11 SSE - 10 -
10.12.2017 17:00:00 9,0 0,0 16 9 S - 10 -
10.12.2017 16:00:00 11,0 -2,1 15 8 SW 1019,3 10 60
10.12.2017 15:00:00 12,0 -3,0 21 11 SW - 10 -
10.12.2017 14:00:00 12,0 -3,0 15 8 SSW - 10 -
10.12.2017 13:00:00 12,0 -1,2 13 7 SW 1020,5 10 60
10.12.2017 12:00:00 11,0 2,0 9 5 WSW - 10 -
10.12.2017 11:00:00 10,0 4,0 15 8 WSW - 10 -
10.12.2017 10:00:00 8,0 4,8 18 10 WSW 1020,4 10 60
10.12.2017 09:00:00 7,0 4,0 21 11 WSW - 10 -
10.12.2017 08:00:00 5,0 4,0 26 14 SW - 10 -
10.12.2017 07:00:00 7,6 5,2 28 15 SW 1018,3 10 -
10.12.2017 06:00:00 6,0 2,0 28 15 W - 10 -
10.12.2017 05:00:00 7,0 3,0 26 14 WSW - 10 -
10.12.2017 04:00:00 6,8 2,7 22 12 WSW 1016,4 10 -
10.12.2017 03:00:00 7,0 3,0 37 20 W - 10 -
10.12.2017 02:00:00 7,0 2,0 29 16 W - 10 -
10.12.2017 01:00:00 7,2 2,7 29 16 W 1014,5 10 -
10.12.2017 00:00:00 8,0 3,0 37 20 W - 10 -
09.12.2017 23:00:00 8,0 4,0 46 25 WNW - 10 -
09.12.2017 22:00:00 8,2 6,2 24 13 W 1013,2 10 -
09.12.2017 21:00:00 10,0 8,0 41 22 W - 10 -
09.12.2017 20:00:00 10,0 8,0 59 32 WNW - 10 -

tt = Température de l'air
td = dewpoint
ff = Vitesse du vent
dd = Direction du vent
ppp = reduced air pressure
vv = visibility
sd = Ensoleillement

stations d'obs. à proximité